WJA2245 MMPR-CYYC

Flight info

Callsign WJA2245
Flight time 4h 16m
Altitude 38000
Route BOBDI1B BOBDI UT4 LMM UJ3 VESKI/N0486F400 UJ3 HMO J92 TUS DCT INW DCT HVE DCT PUC DCT HLN DCT COUTS DCT EBGAL EBGAL7
Aircraft B789/H-SDE1E2E3FGHIJ2J3J4J5M1RWXY/LB1D1

Departure

Time 2026-04-27 00:00
Airport Puerto Vallarta International Airport (MMPR)

Arrival

Time 2026-04-27 04:17
Airport Calgary International Airport (CYYC)
Time Latitude Longitude Altitude Speed Heading
2026-04-26 23:41 20.67944 -105.24706 34 ft 0 kts 48°
2026-04-26 23:53 20.67934 -105.24718 33 ft 4 kts 48°
2026-04-26 23:53 20.67916 -105.24739 31 ft 3 kts 45°
2026-04-26 23:53 20.67906 -105.24745 32 ft 2 kts 351°
2026-04-26 23:53 20.67894 -105.24738 31 ft 2 kts 319°
2026-04-26 23:54 20.67903 -105.24748 32 ft 2 kts 317°
2026-04-26 23:54 20.67907 -105.24751 32 ft 0 kts 317°
2026-04-26 23:56 20.67927 -105.24771 34 ft 9 kts 317°
2026-04-26 23:56 20.68003 -105.24821 34 ft 14 kts 354°
2026-04-26 23:56 20.68106 -105.24753 34 ft 21 kts 39°
2026-04-26 23:57 20.68244 -105.24697 34 ft 22 kts 17°
2026-04-26 23:57 20.68389 -105.24651 34 ft 22 kts 16°
2026-04-26 23:57 20.68519 -105.24571 35 ft 22 kts 44°
2026-04-26 23:57 20.68625 -105.24449 35 ft 23 kts 47°
2026-04-26 23:58 20.68732 -105.24327 35 ft 20 kts 46°
2026-04-26 23:58 20.68827 -105.24265 35 ft 14 kts 355°
2026-04-26 23:58 20.68885 -105.24304 35 ft 9 kts 316°
2026-04-26 23:58 20.68922 -105.24354 35 ft 6 kts 282°
2026-04-26 23:59 20.68908 -105.24386 33 ft 6 kts 230°
2026-04-26 23:59 20.68870 -105.24428 35 ft 16 kts 226°
2026-04-26 23:59 20.68680 -105.24646 35 ft 69 kts 227°
2026-04-26 23:59 20.68226 -105.25167 34 ft 123 kts 227°
2026-04-27 00:00 20.67531 -105.25963 92 ft 165 kts 228°
2026-04-27 00:00 20.66721 -105.26846 658 ft 166 kts 228°
2026-04-27 00:00 20.65903 -105.27723 1229 ft 171 kts 225°
2026-04-27 00:00 20.65055 -105.28651 1747 ft 175 kts 227°
2026-04-27 00:01 20.64205 -105.29688 1927 ft 198 kts 237°
2026-04-27 00:01 20.63554 -105.31031 2257 ft 208 kts 253°
2026-04-27 00:01 20.63668 -105.32530 2728 ft 204 kts 306°
2026-04-27 00:01 20.64699 -105.33557 3111 ft 212 kts 334°
2026-04-27 00:02 20.66109 -105.34048 3683 ft 208 kts 348°
2026-04-27 00:02 20.67532 -105.34376 4237 ft 215 kts 348°
2026-04-27 00:02 20.68993 -105.34725 4891 ft 213 kts 346°
2026-04-27 00:02 20.70436 -105.35112 5501 ft 214 kts 346°
2026-04-27 00:03 20.71888 -105.35490 6117 ft 215 kts 346°
2026-04-27 00:03 20.73350 -105.36104 6272 ft 241 kts 330°
2026-04-27 00:03 20.74824 -105.37100 6437 ft 266 kts 328°
2026-04-27 00:03 20.76459 -105.38182 6905 ft 275 kts 331°
2026-04-27 00:04 20.78123 -105.39160 7559 ft 278 kts 332°
2026-04-27 00:04 20.79845 -105.40146 8140 ft 283 kts 331°
2026-04-27 00:04 20.81587 -105.41173 8741 ft 288 kts 330°
2026-04-27 00:04 20.83355 -105.42228 9344 ft 293 kts 330°
2026-04-27 00:05 20.85155 -105.43296 9920 ft 299 kts 330°
2026-04-27 00:05 20.87012 -105.44394 10204 ft 316 kts 330°
2026-04-27 00:05 20.89010 -105.45577 10232 ft 341 kts 330°
2026-04-27 00:05 20.91157 -105.46849 10408 ft 358 kts 330°
2026-04-27 00:06 20.93307 -105.48121 11047 ft 359 kts 330°
2026-04-27 00:06 20.95518 -105.49431 11611 ft 364 kts 330°
2026-04-27 00:06 20.97748 -105.50754 12194 ft 368 kts 330°
2026-04-27 00:06 20.99999 -105.52089 12760 ft 372 kts 330°
2026-04-27 00:07 21.02276 -105.53440 13327 ft 376 kts 330°
2026-04-27 00:07 21.04582 -105.54808 13861 ft 380 kts 329°
2026-04-27 00:07 21.06903 -105.56187 14404 ft 383 kts 329°
2026-04-27 00:07 21.09233 -105.57571 14942 ft 385 kts 329°
2026-04-27 00:08 21.11581 -105.58966 15499 ft 387 kts 329°
2026-04-27 00:08 21.13947 -105.60373 16023 ft 389 kts 329°
2026-04-27 00:08 21.16326 -105.61787 16544 ft 392 kts 329°
2026-04-27 00:08 21.18718 -105.63209 17059 ft 394 kts 329°
2026-04-27 00:09 21.21096 -105.64625 17562 ft 397 kts 329°
2026-04-27 00:09 21.23521 -105.66069 18060 ft 399 kts 329°
2026-04-27 00:09 21.25955 -105.67518 18508 ft 401 kts 329°
2026-04-27 00:09 21.28399 -105.68974 18936 ft 403 kts 329°
2026-04-27 00:10 21.30858 -105.70439 19375 ft 405 kts 329°
2026-04-27 00:10 21.33330 -105.71913 19803 ft 407 kts 328°
2026-04-27 00:10 21.35806 -105.73390 20230 ft 408 kts 328°
2026-04-27 00:10 21.38275 -105.74905 20636 ft 409 kts 323°
2026-04-27 00:11 21.40604 -105.76659 20985 ft 411 kts 323°
2026-04-27 00:11 21.42962 -105.78402 21408 ft 412 kts 323°
2026-04-27 00:11 21.45336 -105.80151 21810 ft 414 kts 323°
2026-04-27 00:11 21.47709 -105.81918 22192 ft 416 kts 322°
2026-04-27 00:12 21.50058 -105.83673 22587 ft 417 kts 322°
2026-04-27 00:12 21.52450 -105.85454 22965 ft 419 kts 322°
2026-04-27 00:12 21.54855 -105.87241 23339 ft 421 kts 322°
2026-04-27 00:12 21.57270 -105.89039 23662 ft 423 kts 322°
2026-04-27 00:13 21.59689 -105.90843 23998 ft 424 kts 322°
2026-04-27 00:13 21.62117 -105.92654 24298 ft 425 kts 322°
2026-04-27 00:13 21.64552 -105.94470 24622 ft 426 kts 322°
2026-04-27 00:13 21.66997 -105.96293 24920 ft 428 kts 322°
2026-04-27 00:14 21.69444 -105.98120 25235 ft 429 kts 322°
2026-04-27 00:14 21.71901 -105.99955 25541 ft 430 kts 322°
2026-04-27 00:14 21.74360 -106.01792 25844 ft 431 kts 322°
2026-04-27 00:14 21.76802 -106.03617 26137 ft 432 kts 322°
2026-04-27 00:15 21.79285 -106.05474 26450 ft 434 kts 322°
2026-04-27 00:15 21.81762 -106.07326 26750 ft 435 kts 321°
2026-04-27 00:15 21.84252 -106.09190 27052 ft 436 kts 321°
2026-04-27 00:15 21.86744 -106.11056 27357 ft 438 kts 321°
2026-04-27 00:16 21.89247 -106.12931 27663 ft 439 kts 321°
2026-04-27 00:16 21.91764 -106.14817 27968 ft 440 kts 321°
2026-04-27 00:16 21.94289 -106.16710 28278 ft 442 kts 321°
2026-04-27 00:16 21.96811 -106.18601 28579 ft 443 kts 321°
2026-04-27 00:17 21.99344 -106.20502 28897 ft 445 kts 321°
2026-04-27 00:17 22.01892 -106.22414 29198 ft 446 kts 321°
2026-04-27 00:17 22.04413 -106.24307 29510 ft 448 kts 321°
2026-04-27 00:17 22.06976 -106.26233 29804 ft 450 kts 321°
2026-04-27 00:18 22.09544 -106.28164 30098 ft 451 kts 321°
2026-04-27 00:18 22.12120 -106.30101 30355 ft 453 kts 321°
2026-04-27 00:18 22.14715 -106.32053 30634 ft 454 kts 321°
2026-04-27 00:18 22.17310 -106.34007 30891 ft 456 kts 320°
2026-04-27 00:19 22.19917 -106.35970 31137 ft 458 kts 320°
2026-04-27 00:19 22.22533 -106.37941 31405 ft 460 kts 320°
2026-04-27 00:19 22.25163 -106.39924 31667 ft 462 kts 320°
2026-04-27 00:19 22.27800 -106.41912 31927 ft 464 kts 320°
2026-04-27 00:20 22.30458 -106.43918 32189 ft 465 kts 320°
2026-04-27 00:20 22.33120 -106.45928 32450 ft 467 kts 320°
2026-04-27 00:20 22.35791 -106.47945 32713 ft 469 kts 320°
2026-04-27 00:20 22.38444 -106.49949 32980 ft 471 kts 320°
2026-04-27 00:21 22.41134 -106.51983 33247 ft 473 kts 320°
2026-04-27 00:21 22.43839 -106.54029 33515 ft 475 kts 320°
2026-04-27 00:21 22.46557 -106.56085 33786 ft 477 kts 320°
2026-04-27 00:21 22.49279 -106.58146 34077 ft 478 kts 319°
2026-04-27 00:22 22.51989 -106.60197 34504 ft 474 kts 319°
2026-04-27 00:22 22.54689 -106.62242 34936 ft 471 kts 319°
2026-04-27 00:22 22.56496 -106.63612 35215 ft 469 kts 319°
2026-04-27 00:22 22.59125 -106.65607 35627 ft 466 kts 319°
2026-04-27 00:23 22.61779 -106.67621 36036 ft 464 kts 319°
2026-04-27 00:23 22.64411 -106.69618 36429 ft 461 kts 319°
2026-04-27 00:23 22.67029 -106.71607 36812 ft 459 kts 319°
2026-04-27 00:23 22.69635 -106.73588 37189 ft 456 kts 319°
2026-04-27 00:24 22.72232 -106.75562 37557 ft 454 kts 318°
2026-04-27 00:24 22.74811 -106.77524 37845 ft 454 kts 318°
2026-04-27 00:24 22.77404 -106.79499 37948 ft 457 kts 318°
2026-04-27 00:24 22.80013 -106.81487 37949 ft 459 kts 318°
2026-04-27 00:25 22.85220 -106.85447 37946 ft 455 kts 318°
2026-04-27 00:25 22.90395 -106.89399 37949 ft 455 kts 318°
2026-04-27 00:26 22.95583 -106.93357 37949 ft 456 kts 318°
2026-04-27 00:26 23.00777 -106.97326 37951 ft 456 kts 318°
2026-04-27 00:27 23.05943 -107.01276 37956 ft 456 kts 318°
2026-04-27 00:27 23.11124 -107.05242 37952 ft 455 kts 318°
2026-04-27 00:28 23.16302 -107.09211 37957 ft 455 kts 318°
2026-04-27 00:28 23.21465 -107.13168 37954 ft 454 kts 318°
2026-04-27 00:29 23.26598 -107.17109 37955 ft 454 kts 318°
2026-04-27 00:29 23.31765 -107.21079 37960 ft 454 kts 318°
2026-04-27 00:30 23.36930 -107.25051 37966 ft 454 kts 318°
2026-04-27 00:30 23.42093 -107.29025 37964 ft 454 kts 318°
2026-04-27 00:31 23.47263 -107.33009 37965 ft 454 kts 318°
2026-04-27 00:31 23.52424 -107.36989 37967 ft 454 kts 317°
2026-04-27 00:32 23.57541 -107.40940 37965 ft 453 kts 317°
2026-04-27 00:32 23.62691 -107.44920 37956 ft 453 kts 317°
2026-04-27 00:33 23.67843 -107.48905 37961 ft 454 kts 317°
2026-04-27 00:33 23.72994 -107.52894 37958 ft 454 kts 317°
2026-04-27 00:34 23.78148 -107.56888 37960 ft 453 kts 317°
2026-04-27 00:34 23.83289 -107.60878 37961 ft 454 kts 317°
2026-04-27 00:35 23.88438 -107.64876 37967 ft 453 kts 317°
2026-04-27 00:35 23.93550 -107.68850 37953 ft 453 kts 317°
2026-04-27 00:36 23.98682 -107.72843 37953 ft 452 kts 317°
2026-04-27 00:36 24.03818 -107.76844 37960 ft 453 kts 317°
2026-04-27 00:37 24.08947 -107.80843 37966 ft 453 kts 317°
2026-04-27 00:37 24.14081 -107.84851 37965 ft 453 kts 317°
2026-04-27 00:38 24.19216 -107.88863 37965 ft 453 kts 317°
2026-04-27 00:38 24.24321 -107.92855 37962 ft 453 kts 316°
2026-04-27 00:39 24.29451 -107.96871 37961 ft 453 kts 316°
2026-04-27 00:39 24.34578 -108.00889 37961 ft 453 kts 316°
2026-04-27 00:40 24.39708 -108.04913 37961 ft 453 kts 316°
2026-04-27 00:40 24.44841 -108.08944 37964 ft 453 kts 316°
2026-04-27 00:41 24.49975 -108.12980 37960 ft 453 kts 316°
2026-04-27 00:41 24.55098 -108.17011 37961 ft 453 kts 316°
2026-04-27 00:42 24.60195 -108.21026 37965 ft 454 kts 316°
2026-04-27 00:42 24.65326 -108.25071 37957 ft 454 kts 316°
2026-04-27 00:43 24.70457 -108.29121 37957 ft 454 kts 316°
2026-04-27 00:43 24.75593 -108.33179 37956 ft 454 kts 316°
2026-04-27 00:44 24.80718 -108.37233 37955 ft 454 kts 316°
2026-04-27 00:44 24.85855 -108.41300 37957 ft 454 kts 316°
2026-04-27 00:45 24.90981 -108.45363 37959 ft 454 kts 316°
2026-04-27 00:45 24.96079 -108.49408 37957 ft 455 kts 316°
2026-04-27 00:46 25.01214 -108.53487 37957 ft 455 kts 316°
2026-04-27 00:46 25.06356 -108.57575 37961 ft 455 kts 316°
2026-04-27 00:47 25.11495 -108.61665 37958 ft 455 kts 316°
2026-04-27 00:47 25.16629 -108.65756 37955 ft 455 kts 316°
2026-04-27 00:48 25.21766 -108.69853 37958 ft 456 kts 316°
2026-04-27 00:48 25.26899 -108.73951 37961 ft 455 kts 316°
2026-04-27 00:49 25.32035 -108.78059 37956 ft 455 kts 316°
2026-04-27 00:49 25.37167 -108.82168 37962 ft 455 kts 316°
2026-04-27 00:50 25.44838 -108.88317 37959 ft 455 kts 316°
2026-04-27 00:51 25.49969 -108.92436 37963 ft 455 kts 316°
2026-04-27 00:51 25.55090 -108.96551 37965 ft 455 kts 316°
2026-04-27 00:52 25.60220 -109.00679 37970 ft 456 kts 316°
2026-04-27 00:52 25.65358 -109.04816 37970 ft 456 kts 315°
2026-04-27 00:53 25.70947 -109.08338 37985 ft 473 kts 330°
2026-04-27 00:53 25.77071 -109.11040 37970 ft 473 kts 329°
2026-04-27 00:54 25.83154 -109.13720 37972 ft 474 kts 329°
2026-04-27 00:54 25.89279 -109.16426 37970 ft 474 kts 329°
2026-04-27 00:55 25.95411 -109.19137 37971 ft 474 kts 329°
2026-04-27 00:55 26.01538 -109.21848 37952 ft 474 kts 329°
2026-04-27 00:56 26.07671 -109.24565 37955 ft 474 kts 329°
2026-04-27 00:56 26.13808 -109.27288 37968 ft 474 kts 329°
2026-04-27 00:57 26.19945 -109.30014 37971 ft 475 kts 329°
2026-04-27 00:57 26.26043 -109.32725 37974 ft 474 kts 329°
2026-04-27 00:58 26.32175 -109.35454 37965 ft 474 kts 329°
2026-04-27 00:58 26.38299 -109.38184 37970 ft 474 kts 329°
2026-04-27 00:59 26.44426 -109.40917 37966 ft 474 kts 329°
2026-04-27 00:59 26.50549 -109.43652 37962 ft 474 kts 329°
2026-04-27 01:00 26.56673 -109.46391 37970 ft 474 kts 329°
2026-04-27 01:00 26.62796 -109.49132 37968 ft 474 kts 328°
2026-04-27 01:01 26.68922 -109.51878 37965 ft 474 kts 328°
2026-04-27 01:01 26.75052 -109.54629 37967 ft 475 kts 328°
2026-04-27 01:02 26.81146 -109.57367 37961 ft 474 kts 328°
2026-04-27 01:02 26.87269 -109.60121 37963 ft 474 kts 328°
2026-04-27 01:03 26.93390 -109.62878 37966 ft 474 kts 328°
2026-04-27 01:03 26.99514 -109.65638 37954 ft 474 kts 328°
2026-04-27 01:04 27.05635 -109.68401 37966 ft 475 kts 328°
2026-04-27 01:04 27.11777 -109.71177 37972 ft 475 kts 328°
2026-04-27 01:05 27.17863 -109.73928 37979 ft 475 kts 328°
2026-04-27 01:05 27.23999 -109.76706 37983 ft 474 kts 328°
2026-04-27 01:06 27.30130 -109.79485 37987 ft 475 kts 328°
2026-04-27 01:06 27.36262 -109.82268 37990 ft 476 kts 328°
2026-04-27 01:07 27.42043 -109.85529 37999 ft 461 kts 318°
2026-04-27 01:07 27.47511 -109.89361 37988 ft 463 kts 318°
2026-04-27 01:08 27.52982 -109.93204 37986 ft 463 kts 318°
2026-04-27 01:08 27.58449 -109.97048 37978 ft 462 kts 318°
2026-04-27 01:09 27.63898 -110.00884 37973 ft 462 kts 318°
2026-04-27 01:09 27.69350 -110.04727 37962 ft 462 kts 318°
2026-04-27 01:10 27.74768 -110.08549 37965 ft 462 kts 318°
2026-04-27 01:10 27.80222 -110.12403 37965 ft 461 kts 318°
2026-04-27 01:11 27.84740 -110.15600 37968 ft 461 kts 318°
2026-04-27 01:11 27.91070 -110.20088 37969 ft 461 kts 318°
2026-04-27 01:12 27.95625 -110.23320 37965 ft 461 kts 317°
2026-04-27 01:12 28.01029 -110.27158 37958 ft 461 kts 317°
2026-04-27 01:13 28.06463 -110.31018 37992 ft 460 kts 317°
2026-04-27 01:13 28.11850 -110.34855 37964 ft 459 kts 317°
2026-04-27 01:14 28.17296 -110.38736 37957 ft 461 kts 318°
2026-04-27 01:14 28.22735 -110.42614 37961 ft 463 kts 317°
2026-04-27 01:15 28.28155 -110.46484 37956 ft 462 kts 317°
2026-04-27 01:15 28.33605 -110.50383 37953 ft 463 kts 317°
2026-04-27 01:16 28.39056 -110.54285 37957 ft 462 kts 317°
2026-04-27 01:16 28.44461 -110.58160 37965 ft 462 kts 317°
2026-04-27 01:17 28.49899 -110.62063 37969 ft 462 kts 317°
2026-04-27 01:17 28.55328 -110.65965 37968 ft 461 kts 317°
2026-04-27 01:18 28.60754 -110.69868 37976 ft 461 kts 317°
2026-04-27 01:18 28.66175 -110.73774 37966 ft 461 kts 317°
2026-04-27 01:19 28.71597 -110.77685 37970 ft 461 kts 317°
2026-04-27 01:19 28.76980 -110.81574 37972 ft 461 kts 316°
2026-04-27 01:20 28.82406 -110.85497 37974 ft 461 kts 316°
2026-04-27 01:20 28.87817 -110.89415 37983 ft 460 kts 316°
2026-04-27 01:21 28.93226 -110.93337 37992 ft 460 kts 316°
2026-04-27 01:21 28.98631 -110.97261 38002 ft 460 kts 316°
2026-04-27 01:22 29.04047 -111.01164 38015 ft 463 kts 320°
2026-04-27 01:22 29.06955 -111.02776 38015 ft 476 kts 327°
2026-04-27 01:22 29.10135 -111.03979 38018 ft 488 kts 335°
2026-04-27 01:22 29.13522 -111.04695 38018 ft 500 kts 343°
2026-04-27 01:23 29.17038 -111.04867 38014 ft 513 kts 352°
2026-04-27 01:23 29.24169 -111.04559 37993 ft 512 kts 351°
2026-04-27 01:24 29.31286 -111.04236 37983 ft 512 kts 351°
2026-04-27 01:24 29.38406 -111.03920 37975 ft 512 kts 351°
2026-04-27 01:25 29.45523 -111.03600 37960 ft 511 kts 351°
2026-04-27 01:25 29.52588 -111.03285 37960 ft 511 kts 351°
2026-04-27 01:26 29.59698 -111.02965 37956 ft 511 kts 351°
2026-04-27 01:26 29.66806 -111.02647 37957 ft 511 kts 351°
2026-04-27 01:27 29.73926 -111.02327 37952 ft 512 kts 350°
2026-04-27 01:27 29.81043 -111.02007 37955 ft 512 kts 350°
2026-04-27 01:28 29.88175 -111.01686 37951 ft 513 kts 350°
2026-04-27 01:28 29.95307 -111.01364 37951 ft 513 kts 350°
2026-04-27 01:29 30.02411 -111.01044 37944 ft 514 kts 350°
2026-04-27 01:29 30.09548 -111.00720 37947 ft 514 kts 350°
2026-04-27 01:30 30.16695 -111.00398 37944 ft 513 kts 350°
2026-04-27 01:30 30.23838 -111.00077 37943 ft 513 kts 350°
2026-04-27 01:31 30.30971 -110.99755 37941 ft 513 kts 350°
2026-04-27 01:31 30.38125 -110.99432 37934 ft 513 kts 350°
2026-04-27 01:32 30.45270 -110.99108 37946 ft 512 kts 350°
2026-04-27 01:32 30.52356 -110.98787 37945 ft 513 kts 350°
2026-04-27 01:33 30.59488 -110.98432 37949 ft 513 kts 350°
2026-04-27 01:33 30.66624 -110.98086 37936 ft 513 kts 350°
2026-04-27 01:34 30.73769 -110.97736 37950 ft 513 kts 350°
2026-04-27 01:34 30.80890 -110.97385 37952 ft 512 kts 349°
2026-04-27 01:35 30.87988 -110.97065 37949 ft 510 kts 349°
2026-04-27 01:35 30.95095 -110.96741 37956 ft 511 kts 349°
2026-04-27 01:36 31.02203 -110.96416 37957 ft 511 kts 349°
2026-04-27 01:36 31.09317 -110.96092 37954 ft 511 kts 349°
2026-04-27 01:37 31.16387 -110.95768 37992 ft 512 kts 349°
2026-04-27 01:37 31.23521 -110.95440 38026 ft 512 kts 349°
2026-04-27 01:38 31.30644 -110.95114 38052 ft 512 kts 349°
2026-04-27 01:38 31.37763 -110.94787 38083 ft 512 kts 349°
2026-04-27 01:39 31.44885 -110.94463 38083 ft 512 kts 349°
2026-04-27 01:39 31.52003 -110.94136 38064 ft 512 kts 349°
2026-04-27 01:40 31.59112 -110.93811 38030 ft 512 kts 349°
2026-04-27 01:40 31.66193 -110.93486 37993 ft 512 kts 349°
2026-04-27 01:41 31.73327 -110.93158 37945 ft 513 kts 349°
2026-04-27 01:41 31.80458 -110.92829 37950 ft 513 kts 349°
2026-04-27 01:42 31.87605 -110.92500 37968 ft 513 kts 349°
2026-04-27 01:42 31.94740 -110.92170 37989 ft 514 kts 349°
2026-04-27 01:43 32.01886 -110.91840 38013 ft 514 kts 349°
2026-04-27 01:43 32.09030 -110.91509 38014 ft 514 kts 349°
2026-04-27 01:44 32.16171 -110.91221 38021 ft 512 kts 348°
2026-04-27 01:44 32.23278 -110.90953 38016 ft 514 kts 348°
2026-04-27 01:45 32.30422 -110.90664 37999 ft 514 kts 348°
2026-04-27 01:45 32.37582 -110.90390 37978 ft 514 kts 348°
2026-04-27 01:46 32.44725 -110.90103 37946 ft 513 kts 348°
2026-04-27 01:46 32.51863 -110.89826 37939 ft 512 kts 348°
2026-04-27 01:47 32.58988 -110.89543 37933 ft 513 kts 348°
2026-04-27 01:47 32.66120 -110.89262 37914 ft 512 kts 348°
2026-04-27 01:48 32.73196 -110.88981 37910 ft 511 kts 348°
2026-04-27 01:48 32.80325 -110.88701 37913 ft 512 kts 348°
2026-04-27 01:49 32.87461 -110.88415 37912 ft 513 kts 348°
2026-04-27 01:49 32.94605 -110.88132 37917 ft 513 kts 348°
2026-04-27 01:50 33.01679 -110.87850 37925 ft 512 kts 348°
2026-04-27 01:50 33.08741 -110.87569 37909 ft 513 kts 348°
2026-04-27 01:51 33.15823 -110.87286 37919 ft 514 kts 348°
2026-04-27 01:51 33.22967 -110.86999 37926 ft 513 kts 348°
2026-04-27 01:52 33.30115 -110.86713 37921 ft 513 kts 348°
2026-04-27 01:52 33.37191 -110.86429 37914 ft 514 kts 348°
2026-04-27 01:53 33.44218 -110.86143 37930 ft 510 kts 348°
2026-04-27 01:53 33.51336 -110.85862 37945 ft 511 kts 348°
2026-04-27 01:54 33.58462 -110.85570 37936 ft 511 kts 348°
2026-04-27 01:54 33.65570 -110.85286 37942 ft 511 kts 348°
2026-04-27 01:55 33.72591 -110.84999 37940 ft 510 kts 348°
2026-04-27 01:55 33.79664 -110.84714 37941 ft 508 kts 348°
2026-04-27 01:56 33.90296 -110.84282 37949 ft 512 kts 348°
2026-04-27 01:56 33.97402 -110.83991 37960 ft 510 kts 348°
2026-04-27 01:57 34.04502 -110.83705 37962 ft 510 kts 349°
2026-04-27 01:57 34.11558 -110.83413 37956 ft 509 kts 349°
2026-04-27 01:58 34.18639 -110.83126 37959 ft 509 kts 349°
2026-04-27 01:58 34.25727 -110.82834 37959 ft 509 kts 349°
2026-04-27 01:59 34.31663 -110.82591 37948 ft 509 kts 349°
2026-04-27 01:59 34.38685 -110.82301 37954 ft 508 kts 349°
2026-04-27 02:00 34.45758 -110.82012 37944 ft 509 kts 350°
2026-04-27 02:00 34.52834 -110.81718 37945 ft 509 kts 350°
2026-04-27 02:01 34.59941 -110.81425 37927 ft 510 kts 350°
2026-04-27 02:01 34.67033 -110.81131 37931 ft 510 kts 350°
2026-04-27 02:02 34.74082 -110.80840 37958 ft 511 kts 350°
2026-04-27 02:02 34.81200 -110.80544 37987 ft 512 kts 350°
2026-04-27 02:03 34.88302 -110.80248 38018 ft 513 kts 350°
2026-04-27 02:03 34.95407 -110.79951 38043 ft 513 kts 350°
2026-04-27 02:04 35.02549 -110.79654 38047 ft 514 kts 351°
2026-04-27 02:04 35.09691 -110.79376 38045 ft 512 kts 350°
2026-04-27 02:05 35.16814 -110.79229 38014 ft 512 kts 350°
2026-04-27 02:05 35.23941 -110.79008 37982 ft 512 kts 350°
2026-04-27 02:06 35.31025 -110.78828 37937 ft 510 kts 350°
2026-04-27 02:06 35.38088 -110.78629 37905 ft 511 kts 351°
2026-04-27 02:07 35.45176 -110.78436 37901 ft 510 kts 351°
2026-04-27 02:07 35.52272 -110.78242 37900 ft 510 kts 351°
2026-04-27 02:08 35.59353 -110.78046 37903 ft 509 kts 351°
2026-04-27 02:08 35.66441 -110.77851 37893 ft 509 kts 351°
2026-04-27 02:09 35.73509 -110.77655 37897 ft 509 kts 352°
2026-04-27 02:09 35.80586 -110.77460 37889 ft 509 kts 352°
2026-04-27 02:10 35.87582 -110.77266 37895 ft 509 kts 352°
2026-04-27 02:10 35.94681 -110.77068 37895 ft 510 kts 352°
2026-04-27 02:11 36.01768 -110.76871 37896 ft 509 kts 352°
2026-04-27 02:11 36.08858 -110.76674 37815 ft 509 kts 352°
2026-04-27 02:12 36.15733 -110.76481 37809 ft 509 kts 353°
2026-04-27 02:12 36.22926 -110.76281 37811 ft 508 kts 353°
2026-04-27 02:13 36.29996 -110.76082 37808 ft 508 kts 353°
2026-04-27 02:13 36.37067 -110.75884 37806 ft 508 kts 353°
2026-04-27 02:14 36.44089 -110.75686 37799 ft 508 kts 353°
2026-04-27 02:14 36.51155 -110.75487 37793 ft 507 kts 353°
2026-04-27 02:15 36.58213 -110.75288 37794 ft 507 kts 354°
2026-04-27 02:15 36.65262 -110.75088 37794 ft 506 kts 354°
2026-04-27 02:16 36.72308 -110.74888 37791 ft 506 kts 354°
2026-04-27 02:16 36.79351 -110.74689 37792 ft 506 kts 354°
2026-04-27 02:17 36.86387 -110.74488 37792 ft 505 kts 354°
2026-04-27 02:17 36.93295 -110.74292 37791 ft 506 kts 354°
2026-04-27 02:18 37.00413 -110.74088 37787 ft 506 kts 354°
2026-04-27 02:18 37.07464 -110.73887 37784 ft 506 kts 354°
2026-04-27 02:19 37.14518 -110.73685 37782 ft 507 kts 354°
2026-04-27 02:19 37.21565 -110.73483 37785 ft 507 kts 355°
2026-04-27 02:20 37.28575 -110.73280 37773 ft 507 kts 355°
2026-04-27 02:20 37.35631 -110.73078 37776 ft 507 kts 355°
2026-04-27 02:21 37.42679 -110.72874 37766 ft 507 kts 355°
2026-04-27 02:21 37.49745 -110.72670 37769 ft 506 kts 355°
2026-04-27 02:22 37.56785 -110.72465 37772 ft 505 kts 355°
2026-04-27 02:22 37.63824 -110.72261 37764 ft 505 kts 355°
2026-04-27 02:23 37.70794 -110.72058 37768 ft 505 kts 355°
2026-04-27 02:23 37.77771 -110.71855 37761 ft 505 kts 356°
2026-04-27 02:24 37.83084 -110.71700 37762 ft 505 kts 356°
2026-04-27 02:24 37.90054 -110.71496 37753 ft 504 kts 356°
2026-04-27 02:25 37.97056 -110.71292 37761 ft 504 kts 356°
2026-04-27 02:25 38.02003 -110.71146 37757 ft 503 kts 356°
2026-04-27 02:26 38.07504 -110.70985 37747 ft 503 kts 356°
2026-04-27 02:26 38.14503 -110.70778 37770 ft 503 kts 356°
2026-04-27 02:27 38.21457 -110.70574 37805 ft 503 kts 356°
2026-04-27 02:27 38.28478 -110.70366 37833 ft 502 kts 356°
2026-04-27 02:28 38.35463 -110.70159 37855 ft 502 kts 356°
2026-04-27 02:28 38.42450 -110.70002 37857 ft 499 kts 352°
2026-04-27 02:29 38.49353 -110.70323 37847 ft 500 kts 353°
2026-04-27 02:29 38.56303 -110.70623 37828 ft 500 kts 353°
2026-04-27 02:30 38.63254 -110.70943 37809 ft 499 kts 353°
2026-04-27 02:30 38.70182 -110.71248 37789 ft 498 kts 353°
2026-04-27 02:31 38.77049 -110.71561 37768 ft 498 kts 353°
2026-04-27 02:31 38.84187 -110.71880 37772 ft 498 kts 353°
2026-04-27 02:32 38.91070 -110.72192 37771 ft 498 kts 353°
2026-04-27 02:32 38.98006 -110.72505 37767 ft 498 kts 353°
2026-04-27 02:33 39.04923 -110.72819 37773 ft 498 kts 353°
2026-04-27 02:33 39.11805 -110.73131 37768 ft 497 kts 353°
2026-04-27 02:34 39.18783 -110.73449 37765 ft 497 kts 353°
2026-04-27 02:34 39.25576 -110.73759 37769 ft 497 kts 353°
2026-04-27 02:35 39.32535 -110.74077 37783 ft 498 kts 353°
2026-04-27 02:35 39.39413 -110.74392 37815 ft 498 kts 353°
2026-04-27 02:36 39.46341 -110.74710 37827 ft 498 kts 353°
2026-04-27 02:36 39.52252 -110.74981 37841 ft 498 kts 353°
2026-04-27 02:37 39.55498 -110.75132 37968 ft 501 kts 353°
2026-04-27 02:37 39.58989 -110.75292 38267 ft 501 kts 353°
2026-04-27 02:37 39.62450 -110.75670 38496 ft 498 kts 348°
2026-04-27 02:38 39.65901 -110.76207 38679 ft 499 kts 348°
2026-04-27 02:38 39.69353 -110.76741 38912 ft 499 kts 348°
2026-04-27 02:38 39.72804 -110.77267 39132 ft 500 kts 348°
2026-04-27 02:38 39.76264 -110.77795 39355 ft 500 kts 348°
2026-04-27 02:39 39.79680 -110.78322 39535 ft 501 kts 348°
2026-04-27 02:39 39.83136 -110.78857 39775 ft 500 kts 348°
2026-04-27 02:39 39.88925 -110.79749 39809 ft 505 kts 348°
2026-04-27 02:40 39.95872 -110.80818 39799 ft 500 kts 348°
2026-04-27 02:40 40.02770 -110.81890 39801 ft 499 kts 348°
2026-04-27 02:41 40.09659 -110.82956 39792 ft 498 kts 348°
2026-04-27 02:41 40.16569 -110.84031 39788 ft 499 kts 348°
2026-04-27 02:42 40.23470 -110.85105 39790 ft 499 kts 348°
2026-04-27 02:42 40.30332 -110.86176 39794 ft 500 kts 349°
2026-04-27 02:43 40.37238 -110.87256 39800 ft 500 kts 349°
2026-04-27 02:43 40.44144 -110.88338 39802 ft 500 kts 349°
2026-04-27 02:44 40.51063 -110.89424 39811 ft 500 kts 349°
2026-04-27 02:44 40.57969 -110.90511 39813 ft 500 kts 349°
2026-04-27 02:45 40.64843 -110.91595 39825 ft 500 kts 349°
2026-04-27 02:45 40.71761 -110.92688 39830 ft 500 kts 349°
2026-04-27 02:46 40.78676 -110.93783 39827 ft 500 kts 349°
2026-04-27 02:46 40.85586 -110.94880 39833 ft 500 kts 349°
2026-04-27 02:47 40.92506 -110.95979 39841 ft 500 kts 349°
2026-04-27 02:47 40.99413 -110.97080 39848 ft 500 kts 349°
2026-04-27 02:48 41.06288 -110.98178 39860 ft 500 kts 349°
2026-04-27 02:48 41.13202 -110.99284 39868 ft 500 kts 349°
2026-04-27 02:49 41.20114 -111.00392 39874 ft 499 kts 349°
2026-04-27 02:49 41.26979 -111.01496 39881 ft 500 kts 349°
2026-04-27 02:50 41.33893 -111.02609 39885 ft 500 kts 349°
2026-04-27 02:50 41.40814 -111.03725 39874 ft 500 kts 349°
2026-04-27 02:51 41.47465 -111.04801 39851 ft 501 kts 349°
2026-04-27 02:51 41.54348 -111.05917 39839 ft 501 kts 349°
2026-04-27 02:52 41.61276 -111.07041 39826 ft 501 kts 349°
2026-04-27 02:52 41.68187 -111.08166 39813 ft 500 kts 349°
2026-04-27 02:53 41.75103 -111.09295 39814 ft 500 kts 349°
2026-04-27 02:53 41.81994 -111.10421 39808 ft 501 kts 349°
2026-04-27 02:54 41.88908 -111.11553 39813 ft 501 kts 349°
2026-04-27 02:54 41.95836 -111.12691 39808 ft 501 kts 349°
2026-04-27 02:55 42.02767 -111.13831 39811 ft 502 kts 349°
2026-04-27 02:55 42.09698 -111.14974 39808 ft 502 kts 349°
2026-04-27 02:56 42.16629 -111.16119 39811 ft 501 kts 349°
2026-04-27 02:56 42.23527 -111.17262 39821 ft 502 kts 349°
2026-04-27 02:57 42.30470 -111.18414 39811 ft 502 kts 349°
2026-04-27 02:57 42.37404 -111.19568 39813 ft 503 kts 349°
2026-04-27 02:58 42.44365 -111.20728 39824 ft 503 kts 349°
2026-04-27 02:58 42.51314 -111.21890 39831 ft 503 kts 349°
2026-04-27 02:59 42.58216 -111.23045 39836 ft 503 kts 349°
2026-04-27 02:59 42.65169 -111.24213 39835 ft 503 kts 349°
2026-04-27 03:00 42.72131 -111.25384 39839 ft 503 kts 349°
2026-04-27 03:00 42.76926 -111.26192 39835 ft 504 kts 349°
2026-04-27 03:01 42.82606 -111.27150 39836 ft 503 kts 349°
2026-04-27 03:02 42.89564 -111.28328 39829 ft 503 kts 349°
2026-04-27 03:02 42.96150 -111.29445 39826 ft 503 kts 349°
2026-04-27 03:03 43.05683 -111.31065 39827 ft 503 kts 349°
2026-04-27 03:04 43.12618 -111.32247 39834 ft 502 kts 349°
2026-04-27 03:04 43.19561 -111.33434 39836 ft 502 kts 349°
2026-04-27 03:05 43.26448 -111.34613 39834 ft 502 kts 349°
2026-04-27 03:05 43.33377 -111.35803 39839 ft 501 kts 349°
2026-04-27 03:06 43.40296 -111.36993 39835 ft 501 kts 349°
2026-04-27 03:06 43.47213 -111.38186 39843 ft 501 kts 349°
2026-04-27 03:07 43.54104 -111.39377 39849 ft 501 kts 349°
2026-04-27 03:07 43.61024 -111.40575 39855 ft 501 kts 349°
2026-04-27 03:08 43.67939 -111.41776 39858 ft 500 kts 349°
2026-04-27 03:08 43.74840 -111.42977 39855 ft 500 kts 349°
2026-04-27 03:09 43.81748 -111.44182 39855 ft 500 kts 349°
2026-04-27 03:09 43.88671 -111.45393 39839 ft 500 kts 349°
2026-04-27 03:10 43.95528 -111.46594 39834 ft 500 kts 349°
2026-04-27 03:10 44.02429 -111.47807 39838 ft 499 kts 349°
2026-04-27 03:11 44.09322 -111.49021 39847 ft 499 kts 349°
2026-04-27 03:11 44.16233 -111.50240 39839 ft 500 kts 349°
2026-04-27 03:12 44.23139 -111.51462 39852 ft 500 kts 349°
2026-04-27 03:12 44.30043 -111.52687 39865 ft 500 kts 349°
2026-04-27 03:13 44.36916 -111.53908 39876 ft 501 kts 349°
2026-04-27 03:13 44.43822 -111.55138 39885 ft 500 kts 349°
2026-04-27 03:14 44.50738 -111.56374 39890 ft 501 kts 349°
2026-04-27 03:14 44.57645 -111.57610 39901 ft 500 kts 349°
2026-04-27 03:15 44.64550 -111.58849 39907 ft 500 kts 350°
2026-04-27 03:15 44.71413 -111.60084 39916 ft 499 kts 350°
2026-04-27 03:16 44.78306 -111.61327 39933 ft 499 kts 350°
2026-04-27 03:16 44.85200 -111.62573 39935 ft 499 kts 350°
2026-04-27 03:17 44.92084 -111.63820 39944 ft 499 kts 350°
2026-04-27 03:17 44.98982 -111.65073 39966 ft 499 kts 350°
2026-04-27 03:18 45.05864 -111.66326 39973 ft 498 kts 350°
2026-04-27 03:18 45.12735 -111.67580 39980 ft 498 kts 350°
2026-04-27 03:19 45.19571 -111.68831 39973 ft 498 kts 350°
2026-04-27 03:19 45.26460 -111.70094 39974 ft 498 kts 350°
2026-04-27 03:20 45.33331 -111.71357 39974 ft 498 kts 350°
2026-04-27 03:20 45.40212 -111.72625 39980 ft 498 kts 350°
2026-04-27 03:21 45.47047 -111.73888 39992 ft 498 kts 350°
2026-04-27 03:21 45.53929 -111.75163 40008 ft 498 kts 350°
2026-04-27 03:22 45.60813 -111.76441 40022 ft 498 kts 350°
2026-04-27 03:22 45.67703 -111.77723 40033 ft 498 kts 350°
2026-04-27 03:23 45.74588 -111.79008 40034 ft 498 kts 350°
2026-04-27 03:23 45.81429 -111.80288 40039 ft 499 kts 350°
2026-04-27 03:24 45.88309 -111.81577 40046 ft 498 kts 350°
2026-04-27 03:24 45.95176 -111.82869 40053 ft 498 kts 350°
2026-04-27 03:25 46.02051 -111.84164 40062 ft 498 kts 350°
2026-04-27 03:25 46.08872 -111.85453 40069 ft 496 kts 350°
2026-04-27 03:26 46.15716 -111.86749 40081 ft 495 kts 350°
2026-04-27 03:26 46.22534 -111.88044 40094 ft 494 kts 350°
2026-04-27 03:27 46.29363 -111.89343 40095 ft 494 kts 350°
2026-04-27 03:27 46.36146 -111.90638 40082 ft 494 kts 351°
2026-04-27 03:28 46.42974 -111.91944 40072 ft 495 kts 351°
2026-04-27 03:28 46.49801 -111.93253 40058 ft 494 kts 351°
2026-04-27 03:29 46.56607 -111.94562 40047 ft 493 kts 351°
2026-04-27 03:29 46.62277 -111.95549 40059 ft 494 kts 354°
2026-04-27 03:30 46.69130 -111.96493 40040 ft 494 kts 352°
2026-04-27 03:30 46.77099 -111.97564 40072 ft 495 kts 353°
2026-04-27 03:31 46.82852 -111.98349 40095 ft 495 kts 353°
2026-04-27 03:31 46.89667 -111.99283 40127 ft 495 kts 353°
2026-04-27 03:32 46.96570 -112.00221 40157 ft 495 kts 353°
2026-04-27 03:32 47.03424 -112.01163 40157 ft 494 kts 353°
2026-04-27 03:33 47.10217 -112.02093 40158 ft 492 kts 353°
2026-04-27 03:33 47.17046 -112.03035 40163 ft 492 kts 353°
2026-04-27 03:34 47.23870 -112.03976 40161 ft 492 kts 353°
2026-04-27 03:34 47.30696 -112.04921 40161 ft 492 kts 353°
2026-04-27 03:35 47.37515 -112.05867 40164 ft 491 kts 353°
2026-04-27 03:35 47.44324 -112.06814 40158 ft 491 kts 353°
2026-04-27 03:36 47.51091 -112.07758 40157 ft 492 kts 353°
2026-04-27 03:36 47.57911 -112.08711 40159 ft 492 kts 353°
2026-04-27 03:37 47.64752 -112.09670 40161 ft 491 kts 353°
2026-04-27 03:37 47.71506 -112.10620 40164 ft 490 kts 353°
2026-04-27 03:38 47.78293 -112.11576 40172 ft 489 kts 353°
2026-04-27 03:38 47.85075 -112.12534 40177 ft 489 kts 353°
2026-04-27 03:39 47.91865 -112.13496 40183 ft 490 kts 353°
2026-04-27 03:39 47.98580 -112.14450 40193 ft 491 kts 353°
2026-04-27 03:40 48.05398 -112.15421 40189 ft 493 kts 353°
2026-04-27 03:40 48.12237 -112.16398 40197 ft 494 kts 353°
2026-04-27 03:41 48.19062 -112.17375 40206 ft 492 kts 353°
2026-04-27 03:41 48.25866 -112.18351 40212 ft 490 kts 353°
2026-04-27 03:42 48.32653 -112.19328 40204 ft 489 kts 353°
2026-04-27 03:42 48.39433 -112.20307 40177 ft 489 kts 353°
2026-04-27 03:43 48.46219 -112.21289 40162 ft 491 kts 353°
2026-04-27 03:43 48.52985 -112.22271 40145 ft 492 kts 353°
2026-04-27 03:44 48.59814 -112.23264 40130 ft 492 kts 353°
2026-04-27 03:44 48.66613 -112.24256 40135 ft 490 kts 353°
2026-04-27 03:45 48.73400 -112.25249 40152 ft 489 kts 353°
2026-04-27 03:45 48.80141 -112.26238 40180 ft 489 kts 353°
2026-04-27 03:46 48.86933 -112.27236 40216 ft 491 kts 353°
2026-04-27 03:46 48.93743 -112.28241 40254 ft 492 kts 353°
2026-04-27 03:47 49.00519 -112.29656 40279 ft 489 kts 341°
2026-04-27 03:47 49.06872 -112.33374 40265 ft 489 kts 337°
2026-04-27 03:48 49.13181 -112.37273 40267 ft 488 kts 337°
2026-04-27 03:48 49.19447 -112.41132 40268 ft 488 kts 337°
2026-04-27 03:49 49.25741 -112.45033 40269 ft 488 kts 337°
2026-04-27 03:49 49.32033 -112.48936 40271 ft 488 kts 337°
2026-04-27 03:50 49.38340 -112.52863 40244 ft 488 kts 337°
2026-04-27 03:50 49.41461 -112.54809 39665 ft 485 kts 337°
2026-04-27 03:50 49.44604 -112.56772 38882 ft 488 kts 337°
2026-04-27 03:50 49.47749 -112.58739 38189 ft 484 kts 337°
2026-04-27 03:51 49.50858 -112.60686 37517 ft 480 kts 337°
2026-04-27 03:51 49.53950 -112.62625 36843 ft 477 kts 337°
2026-04-27 03:51 49.57007 -112.64546 36165 ft 474 kts 337°
2026-04-27 03:51 49.60010 -112.66434 35505 ft 471 kts 337°
2026-04-27 03:52 49.63031 -112.68336 34853 ft 467 kts 336°
2026-04-27 03:52 49.66031 -112.70228 34218 ft 464 kts 336°
2026-04-27 03:52 49.69013 -112.72111 33537 ft 459 kts 336°
2026-04-27 03:52 49.71950 -112.73968 32921 ft 453 kts 336°
2026-04-27 03:53 49.74846 -112.75801 32322 ft 447 kts 336°
2026-04-27 03:53 49.77710 -112.77617 31740 ft 442 kts 336°
2026-04-27 03:53 49.80539 -112.79412 31155 ft 437 kts 336°
2026-04-27 03:53 49.83335 -112.81190 30583 ft 432 kts 336°
2026-04-27 03:54 49.86104 -112.82951 29982 ft 427 kts 336°
2026-04-27 03:54 49.88831 -112.84689 29421 ft 421 kts 336°
2026-04-27 03:54 49.91520 -112.86404 28873 ft 414 kts 337°
2026-04-27 03:54 49.94167 -112.88094 28336 ft 408 kts 337°
2026-04-27 03:55 49.96743 -112.89741 27819 ft 402 kts 337°
2026-04-27 03:55 49.99317 -112.91389 27299 ft 397 kts 337°
2026-04-27 03:55 50.01850 -112.93012 26780 ft 392 kts 337°
2026-04-27 03:55 50.04360 -112.94623 26267 ft 386 kts 337°
2026-04-27 03:56 50.06828 -112.96208 25758 ft 382 kts 337°
2026-04-27 03:56 50.09272 -112.97779 25260 ft 377 kts 337°
2026-04-27 03:56 50.11686 -112.99334 24766 ft 373 kts 337°
2026-04-27 03:56 50.14074 -113.00873 24288 ft 369 kts 337°
2026-04-27 03:57 50.16439 -113.02399 23799 ft 367 kts 337°
2026-04-27 03:57 50.18793 -113.03919 23284 ft 364 kts 337°
2026-04-27 03:57 50.21132 -113.05431 22811 ft 362 kts 337°
2026-04-27 03:57 50.23461 -113.06937 22344 ft 361 kts 337°
2026-04-27 03:58 50.25775 -113.08436 21864 ft 357 kts 337°
2026-04-27 03:58 50.28054 -113.09914 21409 ft 351 kts 337°
2026-04-27 03:58 50.30299 -113.11372 20963 ft 348 kts 336°
2026-04-27 03:58 50.32506 -113.12807 20525 ft 348 kts 336°
2026-04-27 03:59 50.34744 -113.14263 20060 ft 348 kts 336°
2026-04-27 03:59 50.36973 -113.15714 19625 ft 344 kts 336°
2026-04-27 03:59 50.39166 -113.17143 19188 ft 339 kts 336°
2026-04-27 03:59 50.41343 -113.18564 18757 ft 339 kts 336°
2026-04-27 04:00 50.43519 -113.19985 18285 ft 339 kts 336°
2026-04-27 04:00 50.45693 -113.21407 17842 ft 337 kts 336°
2026-04-27 04:00 50.47850 -113.22818 17415 ft 333 kts 336°
2026-04-27 04:00 50.49973 -113.24209 16903 ft 328 kts 336°
2026-04-27 04:01 50.52059 -113.25576 16475 ft 323 kts 336°
2026-04-27 04:01 50.54130 -113.26936 16059 ft 323 kts 336°
2026-04-27 04:01 50.56197 -113.28295 15650 ft 319 kts 336°
2026-04-27 04:01 50.58223 -113.29626 15243 ft 312 kts 336°
2026-04-27 04:02 50.60202 -113.30929 14900 ft 304 kts 335°
2026-04-27 04:02 50.62116 -113.32188 14708 ft 291 kts 335°
2026-04-27 04:02 50.63902 -113.33364 14568 ft 265 kts 335°
2026-04-27 04:02 50.65557 -113.34457 14459 ft 254 kts 335°
2026-04-27 04:03 50.67191 -113.35540 14359 ft 256 kts 335°
2026-04-27 04:03 50.68843 -113.36634 14261 ft 260 kts 335°
2026-04-27 04:03 50.70371 -113.38120 14126 ft 256 kts 316°
2026-04-27 04:03 50.71677 -113.39964 14135 ft 257 kts 320°
2026-04-27 04:04 50.73088 -113.41801 13638 ft 267 kts 319°
2026-04-27 04:04 50.74477 -113.43666 13226 ft 260 kts 319°
2026-04-27 04:04 50.75832 -113.45523 12943 ft 255 kts 319°
2026-04-27 04:04 50.77165 -113.47346 12675 ft 252 kts 319°
2026-04-27 04:05 50.78488 -113.49147 12413 ft 251 kts 319°
2026-04-27 04:05 50.79809 -113.50946 12175 ft 250 kts 319°
2026-04-27 04:05 50.81128 -113.52746 11924 ft 249 kts 319°
2026-04-27 04:05 50.81993 -113.53928 11760 ft 249 kts 319°
2026-04-27 04:06 50.83170 -113.55537 11548 ft 248 kts 319°
2026-04-27 04:06 50.84447 -113.57283 11295 ft 247 kts 319°
2026-04-27 04:07 50.87023 -113.60808 10800 ft 245 kts 319°
2026-04-27 04:07 50.88312 -113.62575 10538 ft 245 kts 319°
2026-04-27 04:07 50.89595 -113.64335 10295 ft 243 kts 319°
2026-04-27 04:07 50.90766 -113.66239 10017 ft 242 kts 302°
2026-04-27 04:08 50.91363 -113.68689 9757 ft 239 kts 281°
2026-04-27 04:08 50.91293 -113.71311 9524 ft 241 kts 258°
2026-04-27 04:08 50.90553 -113.73704 9295 ft 244 kts 237°
2026-04-27 04:08 50.89544 -113.75878 9047 ft 245 kts 236°
2026-04-27 04:09 50.88525 -113.78042 8809 ft 244 kts 236°
2026-04-27 04:09 50.87514 -113.80198 8568 ft 243 kts 236°
2026-04-27 04:09 50.86517 -113.82349 8326 ft 241 kts 237°
2026-04-27 04:09 50.85928 -113.84744 8058 ft 237 kts 266°
2026-04-27 04:10 50.86051 -113.86931 7855 ft 235 kts 290°
2026-04-27 04:10 50.86789 -113.89186 7656 ft 234 kts 299°
2026-04-27 04:10 50.87543 -113.91377 7431 ft 236 kts 298°
2026-04-27 04:10 50.88314 -113.93590 7214 ft 223 kts 298°
2026-04-27 04:11 50.89042 -113.95676 6982 ft 211 kts 298°
2026-04-27 04:11 50.89735 -113.97669 6758 ft 201 kts 298°
2026-04-27 04:11 50.90395 -113.99568 6546 ft 192 kts 297°
2026-04-27 04:11 50.91081 -114.01298 6411 ft 177 kts 311°
2026-04-27 04:12 50.92211 -114.02048 5989 ft 184 kts 358°
2026-04-27 04:12 50.93428 -114.02068 5922 ft 170 kts 356°
2026-04-27 04:12 50.94624 -114.02112 5812 ft 174 kts
2026-04-27 04:12 50.95367 -114.02108 5694 ft 173 kts
2026-04-27 04:13 50.96551 -114.02120 5634 ft 168 kts
2026-04-27 04:13 50.97741 -114.02120 5646 ft 172 kts
2026-04-27 04:13 50.98939 -114.02122 5638 ft 173 kts
2026-04-27 04:13 51.00138 -114.02121 5633 ft 171 kts
2026-04-27 04:14 51.01368 -114.02123 5419 ft 178 kts
2026-04-27 04:14 51.02538 -114.02125 5174 ft 163 kts
2026-04-27 04:14 51.03657 -114.02128 4948 ft 160 kts
2026-04-27 04:14 51.04409 -114.02129 4783 ft 160 kts
2026-04-27 04:15 51.05877 -114.02119 4364 ft 160 kts
2026-04-27 04:15 51.06995 -114.02114 4097 ft 161 kts
2026-04-27 04:15 51.08114 -114.02130 3900 ft 161 kts
2026-04-27 04:15 51.09235 -114.02134 3709 ft 162 kts
2026-04-27 04:16 51.09978 -114.02138 3573 ft 160 kts
2026-04-27 04:16 51.11041 -114.02136 3561 ft 150 kts
2026-04-27 04:16 51.12088 -114.02135 3561 ft 141 kts 360°
2026-04-27 04:16 51.12802 -114.02137 3558 ft 63 kts
2026-04-27 04:17 51.13054 -114.02132 3560 ft 17 kts
2026-04-27 04:17 51.13095 -114.02035 3560 ft 13 kts 82°
2026-04-27 04:17 51.13098 -114.01871 3558 ft 16 kts 90°
2026-04-27 04:17 51.13040 -114.01689 3556 ft 14 kts 168°
2026-04-27 04:18 51.12969 -114.01681 3560 ft 17 kts 179°
2026-04-27 04:18 51.12894 -114.01596 3559 ft 13 kts 94°
2026-04-27 04:18 51.12853 -114.01436 3562 ft 18 kts 128°
2026-04-27 04:18 51.12777 -114.01276 3558 ft 16 kts 108°
2026-04-27 04:19 51.12808 -114.01154 3559 ft 14 kts 72°
2026-04-27 04:19 51.12779 -114.01020 3561 ft 13 kts 123°
2026-04-27 04:19 51.12742 -114.00873 3560 ft 17 kts 101°
2026-04-27 04:19 51.12755 -114.00672 3558 ft 17 kts 47°
2026-04-27 04:20 51.12829 -114.00620 3557 ft 7 kts 47°
2026-04-27 04:20 51.12845 -114.00547 3562 ft 8 kts 76°
2026-04-27 04:20 51.12851 -114.00502 3562 ft 0 kts 77°